Location: Unspecified
(0.0000°N, 0.0000°E)
Time: 10:54:23
(UTC+00:00)

A-11 Canister half - Pass Details

Date: 06 August 2021
Orbit: 1515 x 1685 km, 47.2° (Epoch: 27 September)

Event Time Altitude Azimuth Distance (km) Brightness Sun altitude
Rises 01:51:20 0° 298° (WNW) 4,921 - -59.1°
Reaches altitude 10° 01:54:58 10° 289° (WNW) 3,923 - -58.4°
Maximum altitude 02:03:35 33° 229° (SW) 2,521 - -56.6°
Drops below altitude 10° 02:12:04 10° 169° (S) 3,829 - -54.7°
Sets 02:15:37 0° 159° (SSE) 4,789 - -54.0°
